www.pogodaiklimat.ru

Погода и климат >> Архив погоды >> Испания >> Вальядолид


ПОГОДА в Вальядолиде

  • Прогноз погоды в Вальядолиде
  • Монитор погоды в Вальядолиде

АРХИВ ПОГОДЫ в Вальядолиде

Время (UTC), дата Ветер
(напр.,м/с)
 
Видим.   Явления Облачность Т
(С)
Тd
(С)
f
(%)
Тe
(С)
Тes
(С)
Комфортность P
(гПа)
Po
(гПа)
Тmin
(С)
Tmax
(С)
R
(мм)
R24
(мм)
S
(см)
10 17.06 ЮЗ 2 20 км н/о +24.1 +6.8 33 +24 +24 комфорт 1014.1 932.9
11 17.06 В 3 20 км н/о +25.9 +6.0 28 +25 +25 комфорт 1013.0 932.3
12 17.06 ЮЗ 3 30 км 1/0
[Cs]
+28.2 +1.6 18 +26 +44 жарко 1011.9 931.8
13 17.06 ЮЗ 2 20 км н/о +29.2 +1.6 17 +27 +27 жарко 1010.6 930.9
14 17.06 З 3 20 км н/о +30.0 +1.4 16 +27 +27 жарко 1009.8 930.3
15 17.06 З 2 30 км 5/0
[Ac trans Cs]
+29.5 +1.0 16 +27 +39 жарко 1009.2 929.7
16 17.06 З 3 20 км н/о +29.5 +1.0 16 +27 +27 жарко 1009.0 929.5
17 17.06 З 4 20 км н/о +29.2 -0.1 15 +27 +27 жарко 1008.7 929.1
18 17.06 З 4 30 км 6/0 1500 м
[Ac trans Cs]
+27.4 -2.5 14 +25 +26 комфорт 1009.8 929.6 +30.1 0.0
19 17.06 СЗ 3 20 км н/о +25.3 -0.7 18 +24 +24 комфорт 1010.7 929.9
20 17.06 СЗ 2 20 км н/о +23.5 +0.5 22 +23 +23 комфорт 1011.6 930.3
21 17.06 С 2 25 км 9/0
[Ac trans Cs]
+22.2 +2.3 27 +22 +22 комфорт 1012.5 930.8
22 17.06 С 1 20 км н/о +21.5 +2.7 29 +21 +21 комфорт 1013.2 931.3
23 17.06 СЗ 2 20 км н/о +21.5 +3.2 30 +22 +22 комфорт 1012.8 930.9
00 18.06 СВ 1 20 км 8/0 1500 м
[Ac trans]
+21.6 +2.8 29 +22 +22 комфорт 1010.9 929.2
01 18.06 Ю 1 20 км н/о +20.1 +2.9 32 +22 +22 комфорт 1011.4 929.3
02 18.06 Ю 1 20 км н/о +18.5 +2.7 35 +20 +20 1011.5 928.9
03 18.06 З 1 20 км 1/1 600 м
[Cu hum Ac trans]
+16.6 +2.9 40 +18 +18 1011.6 928.5
04 18.06 З 1 20 км н/о +15.6 +2.7 42 +17 +17 1012.0 928.6
05 18.06 ЮВ 1 20 км н/о +15.4 +4.4 48 +16 +16 1012.1 928.7
06 18.06 Ю 2 20 км 3/0 1000 м
[Ac cast]
+16.4 +2.0 38 +17 +17 1012.5 929.3 +15.4
07 18.06 Ю 2 20 км н/о +17.7 +2.4 36 +18 +18 1012.6 929.7
08 18.06 Ю 2 20 км н/о +20.5 +3.7 33 +22 +22 комфорт 1011.5 929.5
09 18.06 ЮЗ 3 30 км 1/0
[Ac trans]
+23.2 +0.9 23 +22 +31 комфорт 1010.5 929.2
10 18.06 ЮЗ 3 20 км н/о +25.5 +0.9 20 +24 +24 комфорт 1009.7 929.1
11 18.06 З 5 20 км н/о +26.6 -3.1 14 +24 +24 комфорт 1009.0 928.7
12 18.06 0 30 км 1/1 600 м
[Cu hum]
+27.5 -5.6 11 1008.7 928.6
13 18.06 ЮЗ 5 20 км н/о +27.2 0.0 17 +25 +25 комфорт 1008.3 928.2
14 18.06 ЮЗ 5 20 км н/о +27.6 +4.6 23 +26 +26 жарко 1008.1 928.2
15 18.06 З 6 30 км 1/1 600 м
[Cu hum]
+27.3 +5.0 24 +26 +32 жарко 1008.2 928.2
16 18.06 З 6 20 км н/о +26.7 +5.6 26 +26 +26 жарко 1008.5 928.4
17 18.06 З 8 19 км н/о +25.3 +7.4 32 +25 +25 комфорт 1009.0 928.5
18 18.06 ЮЗ 5 30 км 3/3 600 м
[Sc diur, vesp]
+24.5 +7.2 33 +25 +26 комфорт 1009.5 928.8 +27.9
19 18.06 ЮЗ 4 20 км н/о +23.0 +8.3 39 +24 +24 комфорт 1010.5 929.3
20 18.06 З 4 20 км н/о +21.9 +8.7 43 +23 +23 комфорт 1011.0 929.5
21 18.06 З 3 20 км 3/3 1000 м
[Sc diur, vesp]
+20.6 +8.9 47 +22 +22 комфорт 1011.9 930.0
22 18.06 СЗ 1 17 км н/о +17.7 +9.8 60 +19 +19 1013.2 930.4
23 18.06 З 1 18 км н/о +17.2 +10.6 65 +18 +18 1013.3 930.4
00 19.06 З 1 20 км ясно +16.6 +10.9 69 +17 +17 1013.6 930.5
01 19.06 З 2 15 км н/о +15.8 +11.0 73 +16 +16 1013.7 930.4
02 19.06 З 1 14 км н/о +15.0 +11.0 77 +16 +16 1013.7 930.2
03 19.06 З 2 15 км 5/0
[Ac trans Ci sp]
+15.0 +11.0 77 +15 +15 1013.9 930.4
04 19.06 З 3 13 км н/о +15.2 +10.8 75 +15 +15 1014.3 930.8
05 19.06 ЮЗ 2 12 км н/о +14.7 +10.9 78 +15 +15 1014.6 930.9
06 19.06 ЮЗ 2 20 км 8/5 600 м
[Sc Ac cast Ci]
+15.5 +11.3 76 +15 +16 1014.3 930.9 +14.1
07 19.06 ЮЗ 2 15 км н/о +16.8 +11.5 71 +17 +17 1014.2 931.2
08 19.06 ЮЗ 3 14 км н/о +17.7 +11.9 69 +18 +18 1014.3 931.5
09 19.06 ЮЗ 2 20 км 10/10 600 м
[Cu Sc]
+18.4 +11.5 64 +20 +20 1013.9 931.3
10 19.06 З 3 17 км н/о +18.7 +11.0 61 +20 +20 1014.1 931.6
11 19.06 З 3 20 км в посл. час дождь н/о +20.2 +10.9 55 +22 +22 комфорт 1013.6 931.5 0.0
12 19.06 ЮЗ 3 30 км {ливн. осадки} 9/6 600 м
[Cu Sc Ac cuf Ci sp]
+23.3 +9.7 42 +25 +29 комфорт 1012.2 931.0 0.0
13 19.06 ЮЗ 3 18 км н/о +23.2 +8.8 40 +25 +25 комфорт 1012.0 930.8 0.0
14 19.06 З 5 19 км н/о +25.0 +8.9 36 +26 +26 жарко 1011.3 930.6
15 19.06 З 4 30 км 8/5 600 м
[Cu Sc Ac cuf Ci sp]
+25.5 +9.3 36 +26 +30 жарко 1010.9 930.4 0.0
16 19.06 З 4 20 км н/о +25.0 +9.3 37 +26 +26 жарко 1011.1 930.4 0.0
17 19.06 З 4 20 км н/о +25.0 +9.3 37 +26 +26 жарко 1011.1 930.4
18 19.06 З 4 30 км {ливн. осадки} 6/4 600 м
[Cu Sc Ac cast Ci sp]
+23.3 +9.3 41 +25 +26 комфорт 1011.6 930.4 +25.7 0.0
19 19.06 З 2 20 км н/о +21.9 +9.8 46 +23 +23 комфорт 1012.3 930.7
20 19.06 З 2 20 км н/о +20.8 +9.1 47 +23 +23 комфорт 1012.7 930.8
21 19.06 З 1 25 км 3/0
[Ac trans Ci fib]
+18.6 +8.8 53 +20 +20 1013.9 931.3
22 19.06 З 2 20 км н/о +17.1 +8.5 57 +17 +17 1014.7 931.6
23 19.06 З 2 19 км н/о +16.5 +8.5 59 +17 +17 1015.1 931.8
00 20.06 СЗ 2 25 км 4/0 1500 м
[Ac trans Ci sp]
+16.1 +8.6 61 +16 +16 1015.2 931.8
01 20.06 СЗ 3 19 км н/о +16.4 +8.6 60 +16 +16 1014.8 931.5
02 20.06 СЗ 2 19 км н/о +15.6 +8.8 64 +16 +16 1014.8 931.3
03 20.06 С 2 20 км 9/9 600 м
[Sc]
+15.2 +8.7 65 +15 +15 1015.0 931.4
04 20.06 С 1 17 км н/о +14.7 +9.1 69 +15 +15 1015.2 931.4
05 20.06 С 1 11 км н/о +14.2 +10.4 78 +15 +15 1015.4 931.5
06 20.06 С 1 15 км 9/8 600 м
[Sc As trans]
+14.4 +10.6 78 +15 +15 1015.4 931.6 +14.1
07 20.06 С 2 9000 м н/о +15.2 +11.0 76 +15 +15 1015.2 931.6
08 20.06 С 2 8000 м н/о +16.7 +11.6 72 +17 +17 1014.7 931.6
09 20.06 С 1 15 км 8/3 600 м
[Sc Ac und Cs]
+18.7 +11.7 64 +20 +26 1013.7 931.2
10 20.06 С 1 11 км н/о +21.0 +11.9 56 +24 +24 комфорт 1013.0 931.2
11 20.06 С 2 17 км н/о +22.3 +10.8 48 +24 +24 комфорт 1012.5 931.0
12 20.06 С 1 30 км 9/5 600 м
[Cu med, cong Ac und Ci sp]
+23.3 +10.0 43 +25 +32 комфорт 1011.8 930.6
13 20.06 В 2 20 км н/о +24.8 +9.5 38 +26 +26 жарко 1010.6 929.9
14 20.06 З 2 20 км н/о +26.1 +8.1 32 +26 +26 жарко 1009.7 929.4
15 20.06 С 3 30 км 4/4 600 м
[Cu med, cong]
+24.6 +8.9 37 +25 +33 комфорт 1009.4 928.7
16 20.06 С 2 20 км н/о +24.5 +8.4 36 +25 +25 комфорт 1008.8 928.2
17 20.06 СЗ 3 20 км н/о +23.4 +9.0 40 +25 +25 комфорт 1009.4 928.4
18 20.06 СВ 1 30 км слаб. ливневой дождь 9/9 300 м
[Cb calv]
+22.5 +8.2 40 +24 +24 комфорт 1010.4 929.1 +26.5 0.0
19 20.06 В 2 19 км в посл. час дождь н/о +19.4 +11.2 59 +21 +21 комфорт 1012.0 929.8 0.0
20 20.06 С 3 13 км слаб. морось н/о +17.3 +13.0 76 +17 +17 1013.5 930.7 0.0
21 20.06 С 3 25 км {ливн. осадки} 9/5 300 м
[Cu med, cong Ac cuf Ci sp]
+15.8 +11.4 75 +15 +15 1015.3 931.9 0.0
22 20.06 С 3 4100 м дождь н/о +13.9 +11.9 88 +13 +13 1017.6 933.5 0.8
23 20.06 СВ 2 15 км в посл. час дождь н/о +13.5 +11.7 89 +13 +13 1016.3 932.2 0.6
00 21.06 СВ 2 18 км дымка н/о +13.3 +11.2 87 +13 +13 1016.4 932.2 1
01 21.06 СВ 2 19 км н/о +13.5 +10.7 83 +13 +13 1016.6 932.4
02 21.06 СВ 1 18 км н/о +13.3 +10.7 84 +13 +13 1016.6 932.4
03 21.06 СЗ 1 15 км 4/3 300 м
[Cu Sc Ci fib]
+12.2 +10.8 91 +12 +12 1016.9 932.3
04 21.06 СЗ 2 13 км н/о +11.2 +9.9 92 +10 +10 1017.5 932.6
05 21.06 С 1 9000 м н/о +10.8 +10.0 95 +11 +11 1017.7 932.7
06 21.06 С 2 15 км 6/6 300 м
[St]
+12.2 +11.1 93 +11 +12 1017.8 933.2 +10.8
07 21.06 С 2 19 км н/о +13.2 +10.6 84 +12 +12 1018.1 933.7
08 21.06 СВ 2 17 км н/о +14.5 +10.5 77 +14 +14 1018.3 934.3
09 21.06 СВ 3 25 км 8/8 300 м
[Cu Sc]
+15.4 +10.8 74 +15 +17 1018.4 934.6
10 21.06 СВ 3 20 км н/о +17.5 +10.4 63 +18 +18 1017.6 934.4
11 21.06 СВ 2 20 км н/о +19.7 +9.3 51 +21 +21 комфорт 1016.7 934.2
12 21.06 СВ 2 30 км 5/5 300 м
[Cu med, cong]
+21.3 +9.2 46 +23 +33 комфорт 1015.8 933.8
13 21.06 СВ 2 20 км н/о +22.1 +8.2 41 +23 +23 комфорт 1015.3 933.5
14 21.06 СВ 2 20 км н/о +22.2 +8.3 41 +23 +23 комфорт 1014.8 933.1
15 21.06 С 2 30 км 5/5 300 м
[Cu med, cong]
+23.3 +8.2 38 +24 +31 комфорт 1014.3 932.9
16 21.06 С 2 20 км н/о +22.8 +7.3 37 +24 +24 комфорт 1014.4 932.8
17 21.06 СВ 2 20 км н/о +22.6 +7.2 37 +23 +23 комфорт 1014.0 932.4
18 21.06 С 2 30 км 3/3 600 м
[Sc diur, vesp]
+22.3 +6.1 35 +23 +24 комфорт 1014.3 932.6 +24.0
19 21.06 СВ 1 20 км н/о +21.5 +5.4 35 +22 +22 комфорт 1014.9 932.9
20 21.06 С 1 20 км н/о +20.2 +6.5 41 +22 +22 комфорт 1015.9 933.5
21 21.06 СВ 3 25 км ясно +18.8 +8.2 50 +20 +20 1017.0 934.2
22 21.06 В 3 19 км н/о +17.0 +8.4 57 +17 +17 1017.5 934.2
23 21.06 В 3 19 км н/о +15.8 +8.3 61 +15 +15 1018.0 934.3
00 22.06 СЗ 1 20 км ясно +14.7 +8.2 65 +16 +16 1018.2 934.2
01 22.06 СВ 2 16 км н/о +13.6 +7.8 68 +13 +13 1018.0 933.7
02 22.06 С 1 15 км н/о +12.9 +8.0 72 +13 +13 1017.7 933.2
03 22.06 СЗ 1 15 км 1/0
[Ci fib]
+11.4 +8.3 81 +11 +11 1017.8 932.9
04 22.06 С 2 11 км н/о +11.1 +8.5 84 +10 +10 1017.8 932.8
05 22.06 СЗ 1 9000 м н/о +10.7 +8.6 87 +11 +11 1017.9 932.8
06 22.06 С 1 15 км 3/0
[Ci fib]
+10.9 +8.5 85 +11 +12 1018.1 933.0 +10.7
07 22.06 С 1 9000 м н/о +12.5 +9.0 79 +13 +13 1017.6 933.0
08 22.06 СВ 1 14 км н/о +15.8 +9.5 66 +17 +17 1016.3 932.8
09 22.06 В 1 20 км 3/0
[Ci fib]
+19.6 +9.5 52 +22 +34 комфорт 1014.8 932.4
10 22.06 Ю 1 19 км н/о +23.0 +9.7 43 +25 +25 комфорт 1013.2 931.8
11 22.06 З 3 20 км н/о +26.4 +6.4 28 +26 +26 жарко 1011.8 931.4
12 22.06 З 3 30 км 5/0
[Cs]
+28.2 +6.3 25 +27 +27 жарко 1010.7 930.8
13 22.06 ЮЗ 3 3500 м н/о +28.4 +4.6 22 +27 +27 жарко 1010.0 930.2
14 22.06 З 3 20 км н/о +29.8 +4.4 20 +28 +28 жарко 1008.7 929.3
15 22.06 З 4 30 км 4/0
[Ci sp]
+30.5 +3.5 18 +28 +38 жарко 1007.9 928.7
16 22.06 З 4 20 км н/о +30.7 +2.8 17 +28 +28 жарко 1007.4 928.3
17 22.06 З 3 20 км н/о +31.3 +3.3 17 +29 +29 жарко 1006.7 927.8
18 22.06 З 4 30 км 4/1 600 м
[Sc Ci sp]
+29.7 +2.0 17 +27 +29 жарко 1007.2 927.9 +31.3
19 22.06 З 4 20 км н/о +27.9 +0.6 17 +26 +26 жарко 1008.2 928.3
20 22.06 З 2 20 км н/о +26.1 +2.1 21 +25 +25 комфорт 1008.9 928.5
21 22.06 ЮЗ 2 25 км 5/0
[Ac trans Ci sp]
+24.7 +3.9 26 +24 +24 комфорт 1009.8 929.0
22 22.06 З 2 19 км н/о +23.9 +2.7 25 +23 +23 комфорт 1010.3 929.3
23 22.06 Ю 2 18 км н/о +22.8 +3.8 29 +23 +23 комфорт 1010.4 929.1
00 23.06 ЮЗ 1 20 км 3/0
[Ci fib]
+20.6 +3.8 33 +23 +23 комфорт 1010.8 928.9
01 23.06 Ю 1 18 км н/о +19.6 +3.7 35 +21 +21 комфорт 1010.8 928.6
02 23.06 ЮЗ 1 16 км н/о +17.3 +3.6 40 +18 +18 1011.6 928.7
03 23.06 ЮЗ 1 15 км 4/0
[Ci sp]
+16.3 +4.3 45 +17 +17 1012.4 929.2
04 23.06 Ю 1 15 км н/о +16.0 +5.0 48 +17 +17 1013.1 929.8
05 23.06 СВ 1 16 км н/о +16.1 +5.7 50 +17 +17 1013.2 929.9
06 23.06 СЗ 1 15 км 9/0 2000 м
[Ac trans Cs]
+16.7 +5.9 49 +18 +19 1013.1 930.0 +15.9
07 23.06 Ю 2 14 км н/о +18.7 +6.2 44 +20 +20 1012.6 930.1
08 23.06 ЮВ 2 18 км н/о +19.5 +6.2 42 +21 +21 комфорт 1012.5 930.2
09 23.06 ЮВ 2 20 км 8/0
[Ac trans Cs]
+22.4 +6.2 35 +23 +31 комфорт 1011.7 930.2
10 23.06 ЮВ 3 19 км н/о +24.5 +4.8 28 +24 +24 комфорт 1011.0 930.1
11 23.06 ЮЗ 2 20 км н/о +26.7 +3.8 23 +25 +25 комфорт 1010.2 929.9
12 23.06 З 2 30 км 8/1 600 м
[Cu hum Ac trans Cs]
+28.0 +3.0 20 +26 +37 жарко 1009.5 929.6
13 23.06 ЮЗ 3 20 км н/о +29.0 +1.5 17 +27 +27 жарко 1008.7 929.1
14 23.06 ЮЗ 4 20 км н/о +29.6 +1.1 16 +27 +27 жарко 1008.4 928.9
15 23.06 З 3 30 км 9/1 600 м
[Cu hum Ac trans Cs]
+29.8 +0.4 15 +27 +33 жарко 1008.3 928.9
16 23.06 З 3 20 км н/о +29.5 +0.1 15 +27 +27 жарко 1008.2 928.7
17 23.06 З 3 20 км н/о +28.0 +0.7 17 +26 +26 жарко 1008.6 928.7 0.0
18 23.06 СЗ 2 30 км 10/1 600 м
[Sc diur, vesp Ac As Cs]
+27.0 +1.4 19 +25 +26 комфорт 1008.9 928.8 +30.4
19 23.06 СЗ 2 20 км н/о +24.7 +2.2 23 +24 +24 комфорт 1009.7 928.9
20 23.06 СЗ 2 19 км н/о +23.3 +3.2 27 +23 +23 комфорт 1010.5 929.3
21 23.06 С 1 25 км 8/0
[Ac trans Cs]
+21.9 +4.0 31 +22 +22 комфорт 1011.3 929.7
22 23.06 СЗ 1 19 км н/о +21.1 +4.2 33 +21 +21 комфорт 1011.7 929.8
23 23.06 З 1 19 км н/о +20.8 +5.2 36 +23 +23 комфорт 1011.7 929.8
00 24.06 З 2 20 км 6/0 1500 м
[Ac trans Cs]
+19.9 +4.8 37 +21 +21 комфорт 1012.1 929.9
01 24.06 СЗ 1 20 км н/о +19.1 +6.6 44 +21 +21 комфорт 1012.0 929.6
02 24.06 СЗ 2 20 км н/о +19.0 +12.7 67 +21 +21 комфорт 1011.8 929.6
03 24.06 СЗ 2 20 км 8/0
[Ac As Cs]
+18.8 +13.4 71 +20 +20 1012.0 929.7
04 24.06 С 1 20 км н/о +18.8 +13.9 73 +21 +21 комфорт 1011.6 929.4
05 24.06 СЗ 1 14 км н/о +18.2 +13.1 72 +20 +20 1011.9 929.5
06 24.06 С 1 15 км 10/3 600 м
[Frnb Ac As]
+18.2 +13.5 74 +20 +20 1011.6 929.2 +18.1
07 24.06 З 1 13 км н/о +19.0 +13.2 69 +22 +22 комфорт 1012.0 929.8
08 24.06 ЮЗ 1 16 км н/о +19.7 +13.4 67 +22 +22 комфорт 1012.2 930.2

 

Местоположение метеостанции Вальядолид (Испания): широта 41.65 долгота -4.77 высота над уровнем моря 735 м.

В архиве по умолчанию представлена погода в Вальядолиде за последнюю неделю. Архивные данные за месяц целиком и за предыдущие месяцы, начиная с января 2011 года, Вы можете получить, выбрав интересующий диапазон дат из раскрывающегося списка и нажав кнопку "Ввод!".


*Определитесь, кто Вы:
робот инопланетянин человек

Внимание! Время в таблицах - всемирное. Для получения местного времени необходимо прибавить поправку, которая равна 1 ч.

Смотрите также архив погоды в соседних городах и на ближайших метеорологических станциях:

Погода в Аутилье-дель-Пино (Испания) (41 км)
Погода в Каррион-де-лос-Кондесе (Испания) (79 км)
Погода в Заморе (Испания) (81 км)
Погода в Бенавенте (Испания) (85 км)
Погода в Аранда-де-Дуэро (Испания) (86 км)
Погода в Сеговии (Испания) (95 км)
Погода в Саламанке (Испания) (99 км)
Погода в Саламанке (Испания) (107 км)
Погода в Авиле (Испания) (111 км)
Погода в Сомосьерре (Испания) (114 км)

Пояснения к столбцам:

Ветер - указаны скорость ветра в м/с - средняя за 10 мин, порывы в срок и между сроками (в фигурных скобках) и направление, откуда дует ветер: С - северный, СВ - северо-восточный, В - восточный, ЮВ - юго-восточный, Ю - южный, ЮЗ - юго-западный, З - западный, СЗ - северо-западный.
Видимость - горизонтальная дальность видимости в метрах или километрах. При видимости от 1 до 10 км при отсутствии осадков обычно наблюдается дымка, при ухудшении видимости до 1 км и менее - туман. В сухую погоду видимость может ухудшаться дымом, пылью или мглою.
Явления - указаны атмосферные явления, наблюдавшиеся в срок или в последний час перед сроком; фигурными скобками обозначены явления, наблюдавшиеся между сроками (за 1-3 часа до срока); квадратными скобками обозначены град или гололедные отложения с указанием их диаметра в мм.
Облачность - указаны через наклонную черту общая и нижняя облачность в баллах и высота нижней границы облаков в метрах; квадратными скобками обозначены формы облаков: Ci - перистые, Cs - перисто-слоистые, Cc - перисто-кучевые, Ac - высококучевые, As - высокослоистые, Sc - слоисто-кучевые, Ns - слоисто-дождевые, Cu - кучевые, Cb - кучево-дождевые. Подробнее классификацию облаков см. в Атласе облаков (PDF).
T - Температура воздуха - температура, измеренная на высоте 2 м над землей.
Td - Температура точки росы - температура, при понижении до которой содержащийся в воздухе водяной пар достигнет насыщения.
f - Относительная влажность воздуха - влажноcть воздуха, измеренная на высоте 2 м над землей.
Te - Эффективная температура - температура, которую ощущает одетый по сезону человек в тени. Характеристика душности погоды. При расчете учитывается влияние влажности воздуха и скорости ветра на теплоощущения человека.
Tes - Эффективная температура на солнце - температура, которую ощущает человек, с поправкой на солнечный нагрев. Характеристика знойности погоды. Зависит от высоты солнца над горизонтом, облачности и скорости ветра. Ночью, в пасмурную погоду, а также при ветре 12 м/с и более поправка равна нулю.
P - Атмосферное давление - приведенное к уровню моря атмосферное давление.
Po - Атмосферное давление - измеренное на уровне метеостанции атмосферное давление.
Tmin - Минимальная температура - минимум температуры воздуха на высоте 2 м над землей.
Tmax - Максимальная температура - максимум температуры воздуха на высоте 2 м над землей.
R - Количество осадков - Количество выпавших осадков за период времени, мм. При наведении курсора мыши на число - период времени, за который выпало указанное количество осадков.
R24 - Количество осадков - Количество выпавших осадков за 24 часа, мм.
S - Снежный покров - Высота снежного покрова, см. При наведении курсора мыши на число - состояние снежного покрова и степень покрытия местности в баллах.